This is the latest recevied weather packets stored in our database for station/object OE6ACM-14. If no packets are shown the sender has not sent any weather packets the latest 10 day(s).
| Time | Temp. | Humidity | Pressure | Rain* | Wind** | Luminosity | Snow |
|---|---|---|---|---|---|---|---|
| 1778066979 | 25° C | 28% | 919.1 hPa | - | - | - | - |
| 1778066401 | 26.67° C | 26% | 919.3 hPa | - | - | - | - |
| 1778066101 | 26.67° C | 26% | 919.3 hPa | - | - | - | - |
| 1778065801 | 26.11° C | 27% | 919.3 hPa | - | - | - | - |
| 1778065501 | 26.11° C | 26% | 919.3 hPa | - | - | - | - |
| 1778065201 | 25.56° C | 26% | 919.4 hPa | - | - | - | - |
| 1778064901 | 25° C | 28% | 919.5 hPa | - | - | - | - |
| 1778064601 | 25.56° C | 27% | 919.5 hPa | - | - | - | - |
| 1778064301 | 25° C | 28% | 919.4 hPa | - | - | - | - |
| 1778064001 | 22.78° C | 27% | 919.5 hPa | - | - | - | - |
| 1778063701 | 22.22° C | 30% | 919.6 hPa | - | - | - | - |
| 1778063401 | 21.11° C | 29% | 919.7 hPa | - | - | - | - |
| 1778063101 | 21.11° C | 28% | 919.7 hPa | - | - | - | - |
| 1778062801 | 21.11° C | 29% | 919.7 hPa | - | - | - | - |
| 1778062501 | 21.67° C | 29% | 919.8 hPa | - | - | - | - |
| 1778062201 | 22.22° C | 26% | 919.8 hPa | - | - | - | - |
| 1778061901 | 24.44° C | 27% | 919.8 hPa | - | - | - | - |
| 1778061601 | 22.22° C | 28% | 919.8 hPa | - | - | - | - |
| 1778061301 | 21.11° C | 28% | 919.9 hPa | - | - | - | - |
| 1778061001 | 21.11° C | 28% | 919.9 hPa | - | - | - | - |
| 1778060701 | 21.67° C | 26% | 920 hPa | - | - | - | - |
| 1778060401 | 22.78° C | 26% | 919.8 hPa | - | - | - | - |
| 1778060101 | 25° C | 24% | 919.7 hPa | - | - | - | - |
| 1778059801 | 26.67° C | 22% | 919.7 hPa | - | - | - | - |
| 1778059501 | 28.33° C | 21% | 919.7 hPa | - | - | - | - |
* Rain since midnight (hover to see other rain measurements)
** Current wind speed in m/s (hover to see current wind gust speed)